Dewpoint
10 11 14 15 16 16 18 18 17 16 16 13 11 11 13 14 15 16 12 11 12 12 11 12 10 11 13 11 11 12 8 7 8 8 10 11 11 11 6 8 11 5 13 13 6 9 9 10 11
11 15 15 16 17 18 18 17 18 17 15 13 13 14 15 15 15 13 12 11 11 11 11 11 11 11 12 13 12 12 7 9 8 9 12 12 12 10 12 11 12 10 9 13 8 6 9 11 11
15 15 15 17 17 18 18 17 17 17 16 14 14 14 15 15 14 12 11 11 11 12 11 11 11 13 12 11 12 10 12 11 11 12 12 11 11 9 13 11 12 12 7 7 13 6 8 10 12
15 17 16 16 17 17 18 16 15 17 16 15 14 15 15 15 13 12 11 10 11 11 11 11 12 12 13 12 8 8 13 11 13 12 11 13 12 10 11 12 13 10 9 7 10 9 9 11 14
16 16 18 18 18 17 16 16 17 17 17 16 15 15 15 15 13 11 10 11 11 11 11 12 12 10 8 9 13 11 13 11 13 12 12 12 11 12 14 13 11 13 13 7 8 11 13 14 14
15 15 19 19 18 17 17 16 16 16 16 15 15 15 16 15 13 11 12 11 10 11 12 12 11 8 13 13 12 12 13 12 12 11 12 11 12 12 13 12 10 13 7 7 10 12 13 14 13
15 17 18 17 17 17 17 16 17 16 16 14 14 15 16 15 13 12 12 12 11 12 12 9 9 14 11 13 13 11 11 11 11 11 10 10 10 11 12 11 9 8 6 9 12 13 14 13 12
16 15 17 16 17 18 16 16 16 15 15 14 12 15 15 14 13 13 13 13 12 12 10 8 11 12 13 13 12 11 10 8 6 10 8 9 10 10 11 11 9 7 6 11 14 14 14 13 13
16 17 17 15 16 17 16 17 16 16 15 13 15 12 14 14 14 14 15 13 12 10 8 9 9 11 12 11 11 10 8 5 8 10 11 11 11 11 11 10 10 8 7 9 13 14 14 13 14
16 17 16 13 14 16 16 16 16 16 15 15 13 12 15 15 15 15 15 14 12 7 8 8 9 9 10 10 10 8 5 10 10 11 12 12 12 11 11 10 9 8 8 10 13 13 13 14 13
14 16 13 12 14 15 16 16 15 15 16 15 13 14 16 16 16 15 15 14 11 5 7 9 8 9 10 10 9 6 11 10 10 10 11 11 11 11 11 12 10 10 11 12 12 13 13 13 13
13 12 12 11 14 14 14 15 16 15 15 15 12 14 16 16 16 16 16 14 11 7 6 7 8 10 11 9 9 7 13 13 12 11 12 12 13 11 12 13 12 12 12 12 12 13 13 13 13
11 10 10 9 10 12 14 14 15 16 16 15 12 15 15 15 15 15 15 13 10 7 7 6 8 9 10 8 11 12 13 13 14 13 13 13 14 14 13 13 12 12 12 12 12 13 13 13 13
8 9 8 8 12 14 14 15 15 16 16 15 13 14 14 15 15 15 14 13 9 7 7 8 9 9 9 8 11 12 13 13 14 13 13 14 13 14 14 14 13 13 12 13 12 13 13 13 13
7 8 5 15 15 15 15 16 16 15 16 16 14 13 14 14 14 15 13 12 11 8 9 9 10 9 10 11 12 13 13 13 13 13 13 14 13 14 13 14 13 13 11 12 13 13 13 13 13
2 1 2 14 15 15 15 15 16 15 16 16 15 14 14 13 14 14 13 12 11 11 12 12 11 10 12 13 14 14 14 14 14 13 13 14 14 14 13 14 13 13 13 12 13 13 13 13 13
3 5 4 8 16 16 16 17 16 16 16 16 15 14 14 13 13 13 12 12 11 11 12 12 11 13 13 13 14 14 14 14 14 14 14 14 14 14 14 13 14 13 13 12 12 12 12 13 12
5 5 2 1 15 15 16 16 16 15 16 16 15 14 14 14 12 12 13 12 12 11 11 13 12 12 13 13 14 14 14 14 14 14 14 15 14 13 13 13 13 13 12 12 12 12 12 12 12
2 2 2 1 -1 -1 16 16 17 16 16 16 15 14 13 13 13 12 12 12 12 12 12 13 12 11 13 14 13 13 14 14 14 15 15 14 13 13 13 13 12 13 13 12 11 12 12 12 12
2 3 3 1 -1 -0 6 16 17 16 16 15 15 14 14 13 13 13 13 12 12 12 12 13 11 11 12 13 12 13 13 14 14 15 14 14 14 14 13 13 12 13 13 11 11 11 12 11 12
3 3 3 2 -0 14 16 17 18 16 15 15 15 14 14 13 13 13 13 13 12 12 12 12 12 11 11 12 12 12 14 15 14 14 14 15 15 14 13 14 13 13 12 12 12 11 12 11 11
5 2 2 0 -1 -1 13 15 17 16 16 15 16 15 14 13 13 14 13 12 13 12 12 12 12 10 10 12 12 12 12 14 13 14 14 14 15 13 13 12 13 13 13 11 11 11 12 10 9
3 1 -0 -1 -3 -3 -1 5 9 16 17 16 16 16 15 14 13 13 14 12 12 12 12 12 11 10 11 10 13 12 12 13 13 14 14 15 14 15 14 15 14 13 12 13 11 11 12 9 11
-1 -1 -4 -3 -3 -1 -3 -2 9 17 16 15 15 16 15 15 14 14 13 13 13 13 12 12 11 10 11 10 10 12 12 12 13 14 14 15 14 15 14 14 12 13 14 13 11 12 12 11 11
-4 -3 0 -0 -0 -0 -3 -2 -3 11 14 13 14 15 13 14 14 14 13 13 13 13 12 11 11 11 11 11 10 10 9 11 12 13 14 15 15 14 14 14 13 11 13 14 12 11 12 12 12
-4 -3 -1 1 1 -0 -3 -1 -1 3 7 12 13 13 14 12 12 14 13 13 12 12 11 11 11 11 11 11 10 10 9 12 12 13 15 14 15 14 14 14 13 15 12 13 11 10 12 13 13
-3 -2 -5 -1 -2 -1 -1 -2 -2 5 6 6 12 14 14 14 12 13 13 13 12 12 11 11 11 11 11 11 11 9 9 13 13 13 15 14 14 14 14 14 13 14 13 12 14 13 11 11 12
-6 -4 -1 -1 1 1 0 1 6 6 4 5 12 13 14 14 14 14 13 13 12 12 11 11 11 11 11 11 11 10 7 8 12 14 14 14 13 13 14 14 14 12 14 12 12 13 12 9 9
-5 -4 -4 -2 -1 2 2 5 3 5 2 3 7 12 13 13 13 13 13 13 12 12 12 11 11 11 11 11 11 11 10 7 8 12 14 14 13 13 13 14 14 15 14 13 12 12 13 13 9
-5 -4 -5 -1 -1 -1 2 4 -4 1 -1 -1 13 10 12 11 12 13 13 14 13 13 13 12 12 11 11 11 11 11 11 11 6 7 12 14 13 13 14 16 15 15 14 15 14 14 13 13 12
Wind_Speed
13 13 6 1 1 1 3 2 2 4 2 9 27 9 6 7 1 3 28 36 33 31 29 23 20 19 17 17 18 15 13 13 13 12 11 10 10 10 10 11 10 12 13 10 11 11 11 12 13
14 10 3 0 1 2 3 4 2 7 12 15 11 12 5 4 5 22 42 35 33 31 27 24 20 17 16 17 16 13 12 13 12 12 12 11 10 10 11 11 12 12 11 11 10 13 14 14 14
11 5 1 1 1 3 2 2 8 10 12 7 4 11 5 4 11 41 38 37 33 30 26 22 19 16 16 16 15 12 12 12 12 12 11 10 10 10 11 11 11 10 11 12 12 14 16 15 14
7 2 1 0 4 4 3 7 3 2 8 13 4 7 7 5 34 27 39 37 33 29 24 21 18 16 15 14 13 12 12 11 12 10 10 10 11 11 11 12 12 11 10 12 14 16 17 15 14
5 1 2 3 3 2 4 9 3 3 5 1 6 5 12 15 18 34 39 35 32 28 22 20 17 15 13 13 14 12 12 11 12 11 10 11 11 13 12 12 12 11 11 13 15 18 16 15 13
2 2 2 2 3 3 3 5 7 4 7 5 8 10 5 10 29 39 35 33 28 25 22 19 16 14 14 13 13 13 12 12 12 11 10 12 12 13 13 13 13 12 13 15 18 17 16 17 18
1 2 2 5 1 3 3 2 2 10 11 7 14 4 13 24 35 36 33 28 26 22 21 19 17 16 14 14 14 14 14 14 12 11 12 12 12 12 13 14 15 14 15 18 19 18 16 15 15
2 0 4 3 3 1 5 3 7 14 4 13 18 5 13 35 37 33 30 26 24 21 18 18 17 16 16 15 15 16 15 14 14 15 14 12 12 13 14 14 14 15 15 19 18 17 16 16 15
4 1 3 3 3 2 9 5 8 2 10 7 2 17 38 40 36 34 32 29 26 22 19 18 16 17 16 16 17 17 15 17 18 17 16 15 14 13 15 16 14 14 15 16 16 15 12 12 10
4 1 6 5 0 5 13 6 13 5 12 9 20 30 41 38 36 36 35 30 27 24 21 19 18 17 16 18 19 18 18 19 20 19 17 16 14 14 14 15 15 15 16 14 14 13 11 9 6
5 4 3 2 4 10 11 7 9 13 9 9 29 39 41 38 36 35 32 27 25 23 22 20 18 17 18 20 21 20 21 19 19 18 18 17 15 15 15 15 14 15 15 15 13 10 8 7 10
4 9 12 6 5 7 8 7 7 12 8 15 36 46 43 40 37 34 33 28 25 24 22 21 19 18 19 20 20 21 20 18 16 16 16 15 12 13 14 11 11 12 12 12 11 10 7 4 7
8 6 10 15 21 19 11 8 6 7 9 17 36 39 37 36 33 32 30 26 25 26 24 22 21 20 22 21 21 21 19 16 14 14 13 12 10 10 11 7 9 13 13 13 13 10 10 9 13
4 8 15 15 14 12 3 2 6 8 13 24 34 34 34 36 32 31 32 28 25 25 24 23 23 23 21 23 20 17 16 15 14 12 13 9 7 5 5 6 9 12 14 14 14 13 10 8 11
18 9 10 7 14 3 6 4 5 16 16 32 36 31 28 34 34 34 33 28 27 25 24 25 25 23 24 21 19 17 16 14 13 11 12 9 7 6 6 9 9 9 13 12 12 11 11 11 10
4 4 1 3 12 4 6 4 8 23 26 27 31 31 32 33 34 35 33 29 29 27 23 24 26 23 24 21 19 17 14 11 10 10 11 10 8 8 9 9 11 10 12 9 11 11 9 8 8
6 1 1 1 19 4 7 4 12 23 27 24 30 32 33 28 36 35 35 31 31 28 26 24 27 23 22 19 18 14 13 12 13 11 9 10 9 10 8 8 12 11 10 7 9 10 9 10 6
2 2 0 2 4 3 10 8 11 23 24 30 30 32 33 35 38 37 37 31 31 30 28 26 24 22 23 22 19 15 14 13 13 11 8 9 9 9 10 8 12 11 10 8 6 7 8 8 7
3 3 4 2 6 6 12 8 17 22 20 23 28 31 33 35 37 32 33 29 31 32 34 32 28 26 25 22 23 21 15 15 14 11 9 6 6 8 10 12 13 12 10 11 9 5 5 8 7
5 4 4 7 5 4 4 6 8 14 15 19 21 24 28 29 34 34 32 26 29 34 38 35 30 29 28 24 24 20 17 16 11 11 9 6 7 6 11 13 13 13 12 12 14 8 7 8 9
3 6 3 6 5 2 5 2 5 3 4 14 20 25 25 31 33 33 33 31 29 38 42 36 32 28 29 29 26 21 19 18 15 15 11 10 9 7 8 12 13 11 14 12 13 10 7 9 11
6 5 5 5 1 3 3 3 7 6 6 9 20 28 33 37 36 34 37 36 32 37 45 38 34 28 25 30 29 25 26 23 18 14 12 10 10 10 9 12 13 12 13 13 12 12 10 12 10
10 6 7 4 4 2 2 3 5 8 11 20 22 31 32 36 40 41 38 39 35 32 46 42 37 30 26 26 29 27 26 26 20 16 15 12 12 11 12 10 10 12 13 13 15 14 10 12 11
3 1 4 4 4 1 6 5 3 8 17 14 18 28 32 30 32 31 32 35 35 38 48 45 40 33 27 24 28 28 29 26 24 19 19 17 13 13 13 11 11 14 13 12 15 15 12 11 11
5 6 2 2 2 5 2 4 8 13 13 19 24 33 34 37 33 35 32 40 41 44 51 49 44 37 32 28 27 30 29 30 26 22 20 21 18 15 14 12 12 12 15 12 16 17 16 14 11
5 9 6 5 5 4 1 5 2 8 18 19 25 34 33 33 39 36 40 43 47 46 53 52 47 41 37 32 28 29 30 31 28 25 21 22 20 17 11 13 14 10 12 14 14 17 17 15 13
3 3 5 8 2 3 2 5 3 13 12 14 23 24 30 34 39 44 42 44 48 47 54 53 48 45 40 34 28 30 31 35 32 28 21 22 22 19 17 15 13 14 12 15 15 16 17 18 17
5 3 2 3 6 4 2 4 3 13 15 15 7 25 32 31 34 41 42 45 47 49 51 53 50 47 42 37 33 27 32 35 36 31 28 22 22 22 22 18 15 14 15 14 15 13 15 18 21
7 6 4 3 3 6 4 1 5 6 8 10 11 20 26 26 31 33 44 36 45 47 50 53 52 50 47 42 36 32 29 33 36 35 33 29 23 22 21 18 17 18 17 16 15 15 15 16 18
16 4 4 4 5 3 3 2 7 7 10 17 19 7 22 23 28 27 32 29 28 38 45 50 52 51 50 45 41 37 31 29 34 37 38 35 30 26 25 23 22 20 19 21 20 17 17 17 18
Wind_Direction
131 139 136 114 22 149 256 223 212 298 259 144 151 174 164 99 179 182 145 158 160 155 154 152 149 145 140 141 139 137 132 131 133 133 128 125 123 118 115 114 105 110 114 119 142 144 135 130 129
137 138 131 109 286 256 277 151 87 292 298 141 129 111 82 88 107 140 150 157 157 153 154 154 151 146 142 145 153 144 135 134 132 130 126 122 118 116 112 111 112 105 119 119 124 141 139 137 133
134 138 91 302 282 248 340 144 143 251 27 117 89 70 69 87 145 142 152 157 157 154 156 154 153 151 147 143 146 144 134 131 129 125 122 118 120 117 111 117 114 113 110 121 119 132 139 141 131
154 162 182 206 252 248 251 177 226 267 22 42 44 63 62 27 141 150 152 158 155 153 157 156 156 152 149 149 145 140 136 136 131 130 122 117 120 119 117 115 111 114 110 116 126 129 134 129 132
167 209 253 230 264 248 96 164 136 102 103 184 333 67 105 133 156 151 152 158 156 155 158 157 155 154 152 147 144 141 142 136 131 127 118 126 126 120 119 120 113 113 118 119 126 127 121 121 126
201 236 253 266 231 88 91 192 182 171 174 202 108 105 124 154 154 153 154 158 159 156 159 158 155 152 148 155 146 140 137 136 131 122 126 126 127 122 120 117 113 108 114 124 127 127 122 113 113
193 224 265 284 73 138 154 143 276 151 163 139 143 81 128 148 154 154 156 159 160 161 162 160 156 154 153 148 146 141 141 136 127 126 130 128 130 124 122 123 118 115 121 131 132 127 123 128 118
243 106 290 313 317 251 189 108 139 138 103 141 136 159 151 153 154 155 158 161 162 162 165 161 159 157 152 149 147 141 140 133 129 129 126 126 125 124 124 124 119 119 127 135 132 130 127 122 119
214 295 289 278 4 123 165 151 176 196 147 146 90 159 153 152 161 159 162 163 162 164 169 166 161 155 156 151 147 143 140 132 126 123 124 121 118 121 125 123 126 124 128 140 139 137 128 118 121
230 210 223 221 105 151 169 207 168 151 164 132 109 145 150 157 164 166 168 167 169 168 169 167 163 160 157 153 151 145 140 135 125 123 119 117 115 113 121 119 123 125 125 132 129 129 124 123 143
197 226 243 359 115 126 149 186 186 153 183 174 148 152 159 166 169 171 172 173 171 171 169 167 166 163 160 157 152 148 138 136 130 126 123 122 119 115 115 109 115 119 126 130 133 131 117 110 126
263 243 253 306 235 164 151 156 174 162 213 185 170 166 164 171 174 178 178 179 178 177 173 168 167 164 160 160 155 150 148 144 146 139 131 126 127 127 129 129 125 127 135 152 140 142 137 151 139
252 270 262 266 269 246 131 157 139 145 163 166 161 163 169 173 178 180 176 180 179 177 174 169 166 165 163 163 154 151 150 155 156 151 149 135 141 136 140 125 143 130 126 132 150 134 124 111 127
240 256 266 268 227 216 100 161 159 141 165 160 162 167 174 181 181 179 183 179 180 178 172 169 166 164 167 168 162 157 160 161 166 162 158 163 161 162 163 145 143 141 133 137 149 154 153 143 124
265 279 284 175 167 162 161 173 200 153 159 165 172 173 170 179 192 187 185 182 176 166 170 168 167 166 167 170 167 161 166 164 169 176 176 177 185 177 158 172 162 151 145 143 162 174 159 152 133
293 81 354 113 170 185 146 268 124 155 153 167 178 176 174 180 187 192 191 188 185 175 176 172 172 167 171 180 188 184 184 187 183 185 196 202 197 198 173 167 169 166 158 144 146 162 164 160 143
353 199 161 204 190 135 178 251 157 167 169 169 183 182 179 179 190 194 196 194 197 186 186 182 180 183 180 185 184 188 206 198 190 192 199 202 222 197 189 187 176 176 174 156 139 136 154 148 138
206 325 29 53 152 251 204 255 163 182 178 176 181 190 188 184 186 189 193 201 206 201 198 190 186 184 182 190 200 209 203 195 194 198 212 207 210 197 178 180 181 178 183 186 168 148 150 163 174
194 198 270 256 214 235 206 215 178 189 195 181 182 189 193 195 188 191 194 203 209 210 201 196 191 186 190 199 199 192 190 192 188 198 198 202 192 191 198 183 175 177 174 185 191 172 162 175 189
204 247 278 296 292 155 326 272 177 184 184 186 186 193 195 197 196 198 199 203 212 208 201 198 195 193 193 198 192 198 201 199 202 203 197 200 191 183 182 193 200 208 185 189 195 181 180 181 186
247 221 199 225 342 20 103 54 175 209 173 192 205 203 201 199 198 201 201 206 213 207 198 200 197 200 200 199 199 199 200 202 209 204 206 205 202 211 202 198 198 179 190 187 197 193 198 192 188
260 202 237 260 137 248 155 289 210 199 232 237 205 208 208 202 202 204 206 204 209 209 202 203 200 204 207 205 207 209 208 207 214 214 211 201 203 199 188 183 193 209 206 200 200 197 184 190 193
242 209 202 220 207 85 271 96 305 148 221 230 211 208 209 208 202 203 204 209 213 214 206 203 203 205 206 207 210 213 215 218 222 217 220 219 216 210 199 207 214 203 208 211 204 203 203 208 210
233 194 84 56 112 96 244 138 261 202 220 230 220 222 215 215 217 210 208 210 214 217 208 205 205 209 212 214 215 216 222 219 216 215 216 220 221 212 206 217 226 213 218 216 213 214 213 212 220
108 83 308 19 65 193 222 83 242 231 235 216 205 216 208 207 214 216 209 212 215 214 208 208 208 210 213 216 218 219 220 221 216 216 221 225 225 222 220 221 215 219 218 226 222 215 220 221 223
183 157 161 178 171 184 227 210 194 324 260 242 237 223 210 206 211 216 209 214 213 216 210 209 210 213 215 217 221 220 216 215 215 217 227 228 230 231 237 229 224 229 229 228 223 219 224 224 224
185 180 193 104 359 71 243 300 311 357 0 334 222 219 219 213 214 212 208 214 214 217 215 212 214 216 218 220 223 221 219 217 218 221 226 228 238 242 243 244 236 229 235 224 230 230 233 229 228
45 34 58 8 132 170 295 80 308 345 343 344 290 218 221 217 210 213 207 212 216 219 218 216 219 219 222 222 224 225 224 222 222 224 226 230 234 241 245 242 237 233 238 238 235 235 230 236 232
16 11 356 128 100 149 143 65 15 311 313 330 328 253 225 217 209 214 215 215 218 219 219 221 220 220 222 222 226 226 225 225 225 225 226 229 232 237 226 232 244 245 244 245 246 240 236 239 234
86 74 70 93 333 16 117 305 334 304 320 352 348 304 225 220 219 221 219 212 216 215 219 222 223 225 227 228 228 228 230 229 228 228 226 226 230 231 233 235 242 247 256 247 250 253 242 240 238
Height
1512 1514 1515 1516 1523 1520 1518 1508 1501 1501 1498 1498 1503 1506 1510 1512 1517 1529 1525 1533 1539 1543 1547 1550 1553 1554 1555 1557 1558 1559 1560 1560 1561 1561 1562 1562 1562 1562 1562 1562 1562 1563 1564 1564 1564 1565 1566 1567 1568
1513 1515 1516 1516 1522 1521 1514 1503 1502 1501 1498 1498 1502 1506 1508 1517 1517 1519 1526 1535 1540 1544 1548 1551 1553 1555 1556 1558 1560 1561 1561 1562 1562 1563 1564 1564 1565 1564 1564 1564 1565 1565 1565 1566 1566 1566 1567 1569 1570
1514 1516 1517 1516 1518 1522 1513 1503 1502 1502 1502 1502 1505 1507 1512 1519 1519 1523 1528 1535 1541 1546 1550 1553 1555 1557 1559 1560 1561 1562 1563 1563 1564 1565 1565 1566 1566 1567 1567 1567 1567 1568 1567 1567 1568 1569 1570 1570 1572
1514 1517 1518 1520 1518 1506 1504 1505 1502 1503 1504 1505 1507 1511 1517 1520 1522 1526 1531 1538 1543 1547 1551 1554 1557 1559 1561 1561 1562 1563 1564 1565 1566 1567 1567 1567 1568 1569 1569 1569 1570 1570 1570 1570 1570 1571 1571 1573 1574
1515 1516 1517 1516 1510 1502 1504 1505 1505 1503 1507 1507 1511 1518 1522 1526 1527 1530 1535 1541 1545 1549 1553 1555 1558 1560 1562 1563 1564 1565 1566 1567 1568 1569 1569 1570 1570 1570 1571 1571 1572 1572 1572 1573 1573 1574 1574 1576 1576
1515 1515 1518 1515 1509 1502 1505 1505 1507 1508 1510 1512 1514 1518 1525 1527 1529 1534 1539 1544 1548 1551 1554 1556 1559 1562 1564 1565 1566 1567 1567 1569 1570 1571 1572 1572 1572 1572 1573 1574 1574 1574 1574 1575 1576 1576 1577 1579 1579
1514 1514 1516 1508 1505 1503 1503 1505 1505 1508 1510 1512 1514 1520 1525 1528 1532 1536 1542 1547 1550 1554 1556 1558 1561 1563 1565 1566 1567 1568 1569 1571 1572 1574 1574 1574 1575 1575 1575 1576 1576 1576 1576 1578 1579 1580 1580 1580 1581
1513 1513 1512 1505 1506 1504 1504 1506 1508 1508 1510 1511 1513 1519 1524 1528 1534 1539 1545 1549 1552 1555 1558 1560 1562 1564 1566 1568 1569 1571 1572 1572 1573 1575 1576 1577 1577 1577 1578 1579 1578 1579 1580 1581 1582 1583 1583 1584 1585
1513 1516 1519 1508 1503 1505 1506 1507 1509 1510 1511 1512 1513 1515 1520 1527 1534 1539 1545 1549 1552 1556 1559 1561 1564 1565 1568 1570 1571 1573 1574 1575 1575 1577 1579 1579 1580 1581 1581 1581 1582 1582 1583 1584 1585 1586 1587 1588 1588
1513 1516 1511 1500 1498 1501 1506 1506 1508 1510 1512 1513 1515 1520 1525 1529 1534 1538 1544 1548 1552 1555 1558 1562 1565 1567 1569 1571 1573 1575 1576 1578 1578 1580 1582 1582 1584 1584 1585 1585 1585 1586 1586 1587 1588 1590 1591 1591 1591
1508 1508 1501 1499 1498 1499 1503 1506 1507 1508 1512 1512 1515 1519 1525 1529 1535 1540 1544 1548 1551 1555 1558 1562 1565 1568 1570 1572 1574 1576 1578 1580 1581 1583 1584 1585 1586 1587 1588 1589 1589 1590 1589 1590 1591 1592 1593 1593 1593
1508 1501 1503 1499 1498 1499 1503 1504 1506 1508 1509 1510 1513 1517 1524 1529 1533 1538 1544 1549 1552 1556 1559 1562 1565 1569 1571 1574 1576 1578 1581 1582 1584 1585 1586 1588 1588 1589 1590 1591 1592 1592 1592 1592 1593 1594 1594 1594 1594
1504 1502 1499 1497 1495 1495 1501 1503 1501 1506 1508 1510 1517 1523 1527 1531 1535 1540 1545 1550 1553 1555 1559 1562 1565 1569 1572 1575 1577 1580 1582 1584 1586 1587 1588 1589 1590 1590 1592 1593 1594 1594 1595 1594 1595 1596 1596 1596 1596
1498 1499 1497 1495 1492 1493 1500 1502 1500 1505 1508 1511 1518 1523 1528 1532 1534 1541 1546 1549 1553 1556 1559 1562 1565 1570 1573 1576 1579 1582 1583 1585 1586 1587 1589 1590 1592 1592 1593 1594 1595 1596 1596 1597 1597 1598 1598 1598 1598
1497 1500 1493 1492 1492 1496 1499 1503 1502 1500 1508 1513 1517 1523 1529 1532 1536 1541 1544 1548 1553 1556 1560 1563 1566 1569 1573 1577 1580 1583 1585 1586 1587 1588 1589 1590 1592 1594 1594 1595 1596 1597 1598 1599 1599 1599 1600 1600 1600
1497 1500 1504 1494 1497 1498 1500 1506 1501 1500 1505 1511 1516 1521 1526 1530 1533 1539 1544 1548 1552 1556 1560 1564 1566 1569 1573 1577 1580 1583 1585 1587 1588 1589 1590 1591 1593 1594 1595 1596 1597 1598 1599 1599 1600 1601 1601 1602 1602
1505 1512 1505 1500 1495 1496 1500 1501 1500 1500 1503 1510 1514 1517 1522 1528 1533 1537 1542 1546 1550 1554 1558 1563 1566 1569 1572 1576 1580 1582 1585 1586 1588 1590 1591 1591 1593 1595 1595 1596 1597 1599 1601 1602 1602 1602 1603 1603 1603
1512 1507 1505 1504 1499 1499 1504 1503 1499 1500 1504 1502 1510 1514 1519 1522 1527 1534 1540 1545 1549 1552 1557 1560 1564 1568 1572 1576 1579 1582 1584 1586 1588 1590 1591 1592 1594 1596 1595 1597 1598 1600 1602 1603 1603 1604 1604 1605 1606
1500 1505 1507 1500 1496 1497 1497 1495 1496 1499 1503 1505 1507 1512 1514 1520 1526 1532 1537 1542 1546 1550 1555 1559 1562 1566 1570 1574 1577 1580 1583 1586 1587 1590 1591 1593 1594 1595 1596 1598 1599 1601 1602 1603 1605 1605 1605 1606 1607
1499 1504 1508 1498 1490 1495 1493 1496 1496 1497 1499 1504 1507 1511 1513 1519 1524 1529 1534 1539 1542 1546 1550 1556 1560 1564 1568 1572 1575 1579 1582 1585 1588 1590 1591 1593 1594 1595 1596 1598 1599 1600 1602 1603 1605 1606 1607 1608 1608
1498 1503 1506 1507 1497 1493 1498 1502 1501 1501 1501 1503 1506 1509 1513 1516 1520 1524 1529 1533 1539 1543 1547 1553 1557 1562 1566 1571 1574 1577 1581 1585 1587 1589 1591 1593 1594 1595 1596 1597 1599 1600 1602 1604 1605 1607 1608 1609 1610
1507 1491 1496 1498 1505 1517 1495 1520 1504 1501 1503 1501 1501 1503 1506 1509 1515 1520 1524 1527 1533 1539 1545 1550 1555 1559 1564 1568 1571 1574 1577 1582 1585 1588 1591 1593 1594 1595 1597 1598 1600 1601 1602 1604 1606 1607 1608 1610 1611
1494 1486 1493 1496 1502 1504 1502 1515 1511 1503 1505 1493 1492 1495 1501 1506 1506 1511 1517 1523 1529 1536 1543 1547 1552 1556 1561 1564 1569 1572 1576 1581 1585 1587 1590 1592 1594 1595 1597 1598 1600 1601 1602 1603 1605 1607 1608 1610 1611
1479 1486 1493 1503 1512 1528 1507 1511 1516 1502 1485 1481 1490 1491 1496 1503 1509 1513 1516 1522 1527 1531 1537 1543 1548 1553 1557 1561 1565 1569 1574 1578 1582 1585 1588 1591 1593 1594 1596 1597 1599 1601 1602 1603 1605 1607 1608 1610 1611
1483 1500 1522 1523 1530 1530 1502 1511 1499 1481 1474 1471 1473 1480 1487 1495 1502 1508 1510 1515 1521 1524 1530 1538 1544 1548 1553 1558 1562 1566 1570 1575 1579 1583 1586 1589 1592 1593 1594 1596 1598 1599 1601 1603 1604 1607 1608 1610 1611
1486 1493 1520 1527 1535 1520 1505 1509 1495 1480 1468 1472 1474 1476 1483 1489 1494 1499 1502 1508 1513 1519 1524 1530 1538 1544 1549 1554 1558 1563 1568 1572 1577 1581 1584 1587 1590 1592 1594 1595 1597 1599 1600 1602 1604 1606 1607 1609 1610
1482 1492 1486 1516 1518 1517 1514 1495 1486 1481 1474 1469 1467 1472 1476 1483 1486 1491 1497 1502 1507 1513 1518 1524 1531 1539 1545 1549 1554 1558 1563 1568 1573 1578 1581 1584 1587 1590 1592 1594 1596 1597 1599 1601 1603 1604 1606 1607 1609
1482 1484 1497 1509 1527 1524 1516 1512 1515 1496 1488 1476 1467 1465 1467 1476 1482 1487 1493 1496 1501 1507 1513 1519 1524 1530 1537 1544 1549 1554 1559 1564 1568 1574 1577 1581 1584 1587 1590 1592 1595 1596 1598 1600 1601 1603 1604 1606 1607
1501 1511 1510 1506 1512 1527 1531 1526 1501 1503 1495 1485 1473 1464 1467 1473 1479 1485 1492 1498 1498 1505 1511 1516 1522 1527 1532 1537 1543 1549 1553 1559 1564 1568 1573 1577 1581 1584 1587 1589 1592 1594 1596 1599 1600 1602 1603 1603 1605
1504 1516 1520 1524 1516 1521 1518 1529 1504 1499 1494 1485 1473 1463 1465 1472 1478 1485 1492 1497 1501 1507 1511 1514 1519 1523 1528 1534 1538 1543 1548 1553 1558 1562 1567 1573 1577 1581 1584 1586 1589 1591 1594 1596 1598 1599 1600 1601 1602